Location: Carson
(33.8314°N, 118.2820°W)
Time: 12:34:37
(UTC+00:00)

FALCON 9 DEB - Pass Details

Date: 23 November 2020
Orbit: 376 x 396 km, 53.0° (Epoch: 21 January)

Event Time Altitude Azimuth Distance (km) Brightness Sun altitude
Rises 13:48:41 0° 219° (SW) 2,264 6.5 -9.5°
Reaches altitude 10° 13:50:44 10° 218° (SW) 1,418 5.5 -9.1°
Maximum altitude 13:53:53 73° 133° (SE) 415 3.2 -8.4°
Drops below altitude 10° 13:57:06 10° 48° (NE) 1,440 6.2 -7.8°
Sets 13:59:11 0° 47° (NE) 2,305 7.2 -7.4°
